User: anonymous   Login
Location: Bittkow
(50.3000°N, 19.0000°E)
Time: 18:28:25
(UTC+00:00)
Language:

IRIDIUM 114 - Orbit

View from above orbital plane
View from above orbital plane
View from above satellite
View from above satellite

Ground track
Ground track

The orbit data is extracted from the following two-line orbital elements,

1 41923U 17003G   20330.92887561 +.00000096 +00000-0 +27133-4 0  9999
2 41923 086.4017 216.3750 0002173 076.8462 283.2977 14.34218581202411
Epoch (UTC): 25 November 2020 22:17:34
Eccentricity: 0.0002173
inclination: 86.4017°
perigee height: 776 km
apogee height: 779 km
right ascension of ascending node: 216.3750°
argument of perigee: 76.8462°
revolutions per day: 14.34218581
mean anomaly at epoch: 283.2977°
orbit number at epoch: 20241

The dashed part of the orbit path shows where the satellite is in the earth's shadow,  

DLR